M I D A S
Marine Information and Data Acquisition System
Tripno 1250 of the Zeeleeuw from 2007-04-23 07:07:39 to 2007-04-23 14:47:49
Back to CruiseResearch ActivitiesStationsMapUnderway DataData graphs

EquipmentUnitsComments
TimeDGPSUTC
LatitudeDGPSDM.mWGS84
LongitudeDGPSDM.mWGS84
SpeedMeteo Stationm/sRelative wind speed
DirectionMeteo StationdegRelative wind direction
TemperatureMeteo Stationdeg CelciusAir temperature
PressureMeteo StationPaAtmospheric pressure
HumidityMeteo Station%Relative humidity
Missing or incorrect values are displayed as -999
Metereological data collected by the RV Zeeleeuw from 2007-04-23 06:44:59 to 2007-04-23 15:01:30
                                                                                    Next 1000 lines
Time Latitude Longitude Speed Direction Temperature Pressure Humidity
2007-04-23 06:45:09 51°13.6 2°56.096 -999 -999 -999 -999 -999
2007-04-23 06:45:14 51°13.601 2°56.093 -999 -999 -999 -999 -999
2007-04-23 06:45:19 51°13.601 2°56.09 -999 -999 -999 -999 -999
2007-04-23 06:45:24 51°13.602 2°56.086 -999 -999 -999 -999 -999
2007-04-23 06:45:29 51°13.603 2°56.082 -999 -999 -999 -999 -999
2007-04-23 06:45:34 51°13.604 2°56.078 -999 -999 -999 -999 -999
2007-04-23 06:45:39 51°13.605 2°56.073 -999 -999 -999 -999 -999
2007-04-23 06:45:44 51°13.607 2°56.07 -999 -999 -999 -999 -999
2007-04-23 06:45:49 51°13.607 2°56.069 -999 -999 -999 -999 -999
2007-04-23 06:45:54 51°13.608 2°56.071 -999 -999 -999 -999 -999
2007-04-23 06:45:59 51°13.607 2°56.073 -999 -999 -999 -999 -999
2007-04-23 06:46:04 51°13.606 2°56.075 -999 -999 -999 -999 -999
2007-04-23 06:46:09 51°13.605 2°56.077 -999 -999 -999 -999 -999
2007-04-23 06:46:14 51°13.604 2°56.079 -999 -999 -999 -999 -999
2007-04-23 06:46:19 51°13.603 2°56.081 -999 -999 -999 -999 -999
2007-04-23 06:46:24 51°13.602 2°56.083 -999 -999 -999 -999 -999
2007-04-23 06:46:29 51°13.601 2°56.085 -999 -999 -999 -999 -999
2007-04-23 06:46:34 51°13.6 2°56.087 -999 -999 -999 -999 -999
2007-04-23 06:46:39 51°13.599 2°56.089 -999 -999 -999 -999 -999
2007-04-23 06:46:44 51°13.597 2°56.091 -999 -999 -999 -999 -999
2007-04-23 06:46:49 51°13.596 2°56.093 -999 -999 -999 -999 -999
2007-04-23 06:46:54 51°13.595 2°56.094 -999 -999 -999 -999 -999
2007-04-23 06:46:59 51°13.594 2°56.096 -999 -999 -999 -999 -999
2007-04-23 06:47:04 51°13.593 2°56.097 -999 -999 -999 -999 -999
2007-04-23 06:47:09 51°13.591 2°56.099 -999 -999 -999 -999 -999
2007-04-23 06:47:14 51°13.59 2°56.101 -999 -999 -999 -999 -999
2007-04-23 06:47:19 51°13.588 2°56.103 -999 -999 -999 -999 -999
2007-04-23 06:47:24 51°13.586 2°56.105 -999 -999 -999 -999 -999
2007-04-23 06:47:29 51°13.584 2°56.106 -999 -999 -999 -999 -999
2007-04-23 06:47:34 51°13.582 2°56.108 -999 -999 -999 -999 -999
2007-04-23 06:47:39 51°13.581 2°56.11 -999 -999 -999 -999 -999
2007-04-23 06:47:44 51°13.579 2°56.112 -999 -999 -999 -999 -999
2007-04-23 06:47:49 51°13.577 2°56.114 -999 -999 -999 -999 -999
2007-04-23 06:47:54 51°13.574 2°56.117 -999 -999 -999 -999 -999
2007-04-23 06:47:59 51°13.572 2°56.119 -999 -999 -999 -999 -999
2007-04-23 06:48:04 51°13.569 2°56.123 -999 -999 -999 -999 -999
2007-04-23 06:48:09 51°13.566 2°56.127 -999 -999 -999 -999 -999
2007-04-23 06:48:14 51°13.563 2°56.131 -999 -999 -999 -999 -999
2007-04-23 06:48:19 51°13.561 2°56.135 -999 -999 -999 -999 -999
2007-04-23 06:48:24 51°13.558 2°56.139 -999 -999 -999 -999 -999
2007-04-23 06:48:29 51°13.554 2°56.143 -999 -999 -999 -999 -999
2007-04-23 06:48:34 51°13.551 2°56.148 -999 -999 -999 -999 -999
2007-04-23 06:48:39 51°13.548 2°56.153 -999 -999 -999 -999 -999
2007-04-23 06:48:44 51°13.545 2°56.158 -999 -999 -999 -999 -999
2007-04-23 06:48:49 51°13.541 2°56.163 -999 -999 -999 -999 -999
2007-04-23 06:48:54 51°13.538 2°56.17 -999 -999 -999 -999 -999
2007-04-23 06:48:59 51°13.534 2°56.177 -999 -999 -999 -999 -999
2007-04-23 06:49:04 51°13.531 2°56.185 -999 -999 -999 -999 -999
2007-04-23 06:49:09 51°13.529 2°56.195 -999 -999 -999 -999 -999
2007-04-23 06:49:14 51°13.528 2°56.204 -999 -999 -999 -999 -999
2007-04-23 06:49:19 51°13.527 2°56.214 -999 -999 -999 -999 -999
2007-04-23 06:49:24 51°13.528 2°56.224 -999 -999 -999 -999 -999
2007-04-23 06:49:29 51°13.529 2°56.233 -999 -999 -999 -999 -999
2007-04-23 06:49:34 51°13.53 2°56.242 -999 -999 -999 -999 -999
2007-04-23 06:49:39 51°13.532 2°56.251 -999 -999 -999 -999 -999
2007-04-23 06:49:44 51°13.535 2°56.259 -999 -999 -999 -999 -999
2007-04-23 06:49:49 51°13.538 2°56.265 -999 -999 -999 -999 -999
2007-04-23 06:49:54 51°13.541 2°56.271 -999 -999 -999 -999 -999
2007-04-23 06:49:59 51°13.542 2°56.274 -999 -999 -999 -999 -999
2007-04-23 06:50:04 51°13.544 2°56.277 -999 -999 -999 -999 -999
2007-04-23 06:50:09 51°13.545 2°56.279 -999 -999 -999 -999 -999
2007-04-23 06:50:14 51°13.546 2°56.281 -999 -999 -999 -999 -999
2007-04-23 06:50:19 51°13.546 2°56.282 -999 -999 -999 -999 -999
2007-04-23 06:50:24 51°13.546 2°56.282 -999 -999 -999 -999 -999
2007-04-23 06:50:29 51°13.546 2°56.283 -999 -999 -999 -999 -999
2007-04-23 06:50:34 51°13.545 2°56.282 -999 -999 -999 -999 -999
2007-04-23 06:50:39 51°13.544 2°56.282 -999 -999 -999 -999 -999
2007-04-23 06:50:44 51°13.542 2°56.281 -999 -999 -999 -999 -999
2007-04-23 06:50:49 51°13.541 2°56.281 -999 -999 -999 -999 -999
2007-04-23 06:50:54 51°13.54 2°56.28 -999 -999 -999 -999 -999
2007-04-23 06:50:59 51°13.539 2°56.28 -999 -999 -999 -999 -999
2007-04-23 06:51:04 51°13.539 2°56.28 -999 -999 -999 -999 -999
2007-04-23 06:51:09 51°13.54 2°56.281 -999 -999 -999 -999 -999
2007-04-23 06:51:14 51°13.54 2°56.281 -999 -999 -999 -999 -999
2007-04-23 06:51:19 51°13.541 2°56.282 -999 -999 -999 -999 -999
2007-04-23 06:51:24 51°13.542 2°56.283 -999 -999 -999 -999 -999
2007-04-23 06:51:29 51°13.543 2°56.283 -999 -999 -999 -999 -999
2007-04-23 06:51:34 51°13.543 2°56.284 -999 -999 -999 -999 -999
2007-04-23 06:51:39 51°13.543 2°56.284 -999 -999 -999 -999 -999
2007-04-23 06:51:44 51°13.543 2°56.284 -999 -999 -999 -999 -999
2007-04-23 06:51:49 51°13.543 2°56.285 -999 -999 -999 -999 -999
2007-04-23 06:51:54 51°13.542 2°56.285 -999 -999 -999 -999 -999
2007-04-23 06:51:59 51°13.541 2°56.285 -999 -999 -999 -999 -999
2007-04-23 06:52:04 51°13.54 2°56.285 -999 -999 -999 -999 -999
2007-04-23 06:52:09 51°13.539 2°56.285 -999 -999 -999 -999 -999
2007-04-23 06:52:14 51°13.538 2°56.285 -999 -999 -999 -999 -999
2007-04-23 06:52:19 51°13.536 2°56.285 -999 -999 -999 -999 -999
2007-04-23 06:52:24 51°13.536 2°56.285 -999 -999 -999 -999 -999
2007-04-23 06:52:29 51°13.536 2°56.285 -999 -999 -999 -999 -999
2007-04-23 06:52:34 51°13.537 2°56.286 -999 -999 -999 -999 -999
2007-04-23 06:52:39 51°13.538 2°56.286 -999 -999 -999 -999 -999
2007-04-23 06:52:44 51°13.54 2°56.286 -999 -999 -999 -999 -999
2007-04-23 06:52:49 51°13.542 2°56.286 -999 -999 -999 -999 -999
2007-04-23 06:52:54 51°13.543 2°56.286 -999 -999 -999 -999 -999
2007-04-23 06:52:59 51°13.543 2°56.286 -999 -999 -999 -999 -999
2007-04-23 06:53:04 51°13.544 2°56.287 -999 -999 -999 -999 -999
2007-04-23 06:53:09 51°13.543 2°56.288 -999 -999 -999 -999 -999
2007-04-23 06:53:14 51°13.543 2°56.289 -999 -999 -999 -999 -999
2007-04-23 06:53:19 51°13.541 2°56.29 -999 -999 -999 -999 -999
2007-04-23 06:53:24 51°13.539 2°56.291 -999 -999 -999 -999 -999
2007-04-23 06:53:29 51°13.537 2°56.292 -999 -999 -999 -999 -999
2007-04-23 06:53:34 51°13.535 2°56.294 -999 -999 -999 -999 -999
2007-04-23 06:53:39 51°13.534 2°56.294 -999 -999 -999 -999 -999
2007-04-23 06:53:44 51°13.533 2°56.295 -999 -999 -999 -999 -999
2007-04-23 06:53:49 51°13.532 2°56.295 -999 -999 -999 -999 -999
2007-04-23 06:53:54 51°13.532 2°56.296 -999 -999 -999 -999 -999
2007-04-23 06:53:59 51°13.532 2°56.296 -999 -999 -999 -999 -999
2007-04-23 06:54:04 51°13.533 2°56.295 -999 -999 -999 -999 -999
2007-04-23 06:54:09 51°13.534 2°56.295 -999 -999 -999 -999 -999
2007-04-23 06:54:14 51°13.535 2°56.293 -999 -999 -999 -999 -999
2007-04-23 06:54:19 51°13.536 2°56.292 -999 -999 -999 -999 -999
2007-04-23 06:54:24 51°13.538 2°56.29 -999 -999 -999 -999 -999
2007-04-23 06:54:29 51°13.54 2°56.287 -999 -999 -999 -999 -999
2007-04-23 06:54:34 51°13.542 2°56.282 -999 -999 -999 -999 -999
2007-04-23 06:54:39 51°13.544 2°56.276 -999 -999 -999 -999 -999
2007-04-23 06:54:44 51°13.546 2°56.268 -999 -999 -999 -999 -999
2007-04-23 06:54:49 51°13.547 2°56.26 -999 -999 -999 -999 -999
2007-04-23 06:54:54 51°13.548 2°56.252 -999 -999 -999 -999 -999
2007-04-23 06:54:59 51°13.549 2°56.243 -999 -999 -999 -999 -999
2007-04-23 06:55:04 51°13.549 2°56.234 -999 -999 -999 -999 -999
2007-04-23 06:55:09 51°13.55 2°56.226 -999 -999 -999 -999 -999
2007-04-23 06:55:14 51°13.551 2°56.217 -999 -999 -999 -999 -999
2007-04-23 06:55:19 51°13.551 2°56.208 -999 -999 -999 -999 -999
2007-04-23 06:55:24 51°13.552 2°56.198 -999 -999 -999 -999 -999
2007-04-23 06:55:29 51°13.552 2°56.189 -999 -999 -999 -999 -999
2007-04-23 06:55:34 51°13.553 2°56.18 -999 -999 -999 -999 -999
2007-04-23 06:55:39 51°13.554 2°56.171 -999 -999 -999 -999 -999
2007-04-23 06:55:44 51°13.555 2°56.162 -999 -999 -999 -999 -999
2007-04-23 06:55:49 51°13.557 2°56.152 -999 -999 -999 -999 -999
2007-04-23 06:55:54 51°13.558 2°56.143 -999 -999 -999 -999 -999
2007-04-23 06:55:59 51°13.56 2°56.134 -999 -999 -999 -999 -999
2007-04-23 06:56:04 51°13.561 2°56.124 -999 -999 -999 -999 -999
2007-04-23 06:56:09 51°13.563 2°56.115 -999 -999 -999 -999 -999
2007-04-23 06:56:14 51°13.566 2°56.107 -999 -999 -999 -999 -999
2007-04-23 06:56:19 51°13.568 2°56.098 -999 -999 -999 -999 -999
2007-04-23 06:56:24 51°13.571 2°56.089 -999 -999 -999 -999 -999
2007-04-23 06:56:29 51°13.573 2°56.08 -999 -999 -999 -999 -999
2007-04-23 06:56:34 51°13.576 2°56.072 -999 -999 -999 -999 -999
2007-04-23 06:56:39 51°13.579 2°56.063 -999 -999 -999 -999 -999
2007-04-23 06:56:44 51°13.582 2°56.055 -999 -999 -999 -999 -999
2007-04-23 06:56:49 51°13.586 2°56.046 -999 -999 -999 -999 -999
2007-04-23 06:56:54 51°13.589 2°56.038 -999 -999 -999 -999 -999
2007-04-23 06:56:59 51°13.592 2°56.03 -999 -999 -999 -999 -999
2007-04-23 06:57:04 51°13.596 2°56.021 -999 -999 -999 -999 -999
2007-04-23 06:57:09 51°13.599 2°56.013 -999 -999 -999 -999 -999
2007-04-23 06:57:14 51°13.603 2°56.004 -999 -999 -999 -999 -999
2007-04-23 06:57:19 51°13.607 2°55.995 -999 -999 -999 -999 -999
2007-04-23 06:57:24 51°13.61 2°55.986 -999 -999 -999 -999 -999
2007-04-23 06:57:29 51°13.614 2°55.977 -999 -999 -999 -999 -999
2007-04-23 06:57:34 51°13.618 2°55.968 -999 -999 -999 -999 -999
2007-04-23 06:57:39 51°13.622 2°55.959 -999 -999 -999 -999 -999
2007-04-23 06:57:44 51°13.626 2°55.949 -999 -999 -999 -999 -999
2007-04-23 06:57:49 51°13.631 2°55.94 -999 -999 -999 -999 -999
2007-04-23 06:57:54 51°13.636 2°55.932 -999 -999 -999 -999 -999
2007-04-23 06:57:59 51°13.641 2°55.923 -999 -999 -999 -999 -999
2007-04-23 06:58:04 51°13.645 2°55.914 -999 -999 -999 -999 -999
2007-04-23 06:58:09 51°13.65 2°55.904 -999 -999 -999 -999 -999
2007-04-23 06:58:14 51°13.655 2°55.895 -999 -999 -999 -999 -999
2007-04-23 06:58:19 51°13.659 2°55.885 -999 -999 -999 -999 -999
2007-04-23 06:58:24 51°13.664 2°55.875 -999 -999 -999 -999 -999
2007-04-23 06:58:29 51°13.668 2°55.865 -999 -999 -999 -999 -999
2007-04-23 06:58:34 51°13.673 2°55.855 -999 -999 -999 -999 -999
2007-04-23 06:58:39 51°13.678 2°55.845 -999 -999 -999 -999 -999
2007-04-23 06:58:44 51°13.683 2°55.836 -999 -999 -999 -999 -999
2007-04-23 06:58:49 51°13.688 2°55.826 -999 -999 -999 -999 -999
2007-04-23 06:58:54 51°13.693 2°55.816 -999 -999 -999 -999 -999
2007-04-23 06:58:59 51°13.698 2°55.806 -999 -999 -999 -999 -999
2007-04-23 06:59:04 51°13.703 2°55.795 -999 -999 -999 -999 -999
2007-04-23 06:59:09 51°13.708 2°55.785 -999 -999 -999 -999 -999
2007-04-23 06:59:14 51°13.713 2°55.774 -999 -999 -999 -999 -999
2007-04-23 06:59:19 51°13.719 2°55.764 -999 -999 -999 -999 -999
2007-04-23 06:59:24 51°13.725 2°55.755 -999 -999 -999 -999 -999
2007-04-23 06:59:29 51°13.731 2°55.745 -999 -999 -999 -999 -999
2007-04-23 06:59:34 51°13.737 2°55.736 -999 -999 -999 -999 -999
2007-04-23 06:59:39 51°13.743 2°55.726 -999 -999 -999 -999 -999
2007-04-23 06:59:44 51°13.75 2°55.717 -999 -999 -999 -999 -999
2007-04-23 06:59:49 51°13.757 2°55.709 -999 -999 -999 -999 -999
2007-04-23 06:59:54 51°13.764 2°55.7 -999 -999 -999 -999 -999
2007-04-23 06:59:59 51°13.771 2°55.692 -999 -999 -999 -999 -999
2007-04-23 07:00:04 51°13.778 2°55.684 -999 -999 -999 -999 -999
2007-04-23 07:00:09 51°13.786 2°55.677 -999 -999 -999 -999 -999
2007-04-23 07:00:14 51°13.793 2°55.669 -999 -999 -999 -999 -999
2007-04-23 07:00:19 51°13.801 2°55.662 -999 -999 -999 -999 -999
2007-04-23 07:00:24 51°13.809 2°55.656 -999 -999 -999 -999 -999
2007-04-23 07:00:29 51°13.817 2°55.649 -999 -999 -999 -999 -999
2007-04-23 07:00:34 51°13.825 2°55.643 -999 -999 -999 -999 -999
2007-04-23 07:00:39 51°13.834 2°55.638 -999 -999 -999 -999 -999
2007-04-23 07:00:44 51°13.842 2°55.632 -999 -999 -999 -999 -999
2007-04-23 07:00:49 51°13.85 2°55.625 -999 -999 -999 -999 -999
2007-04-23 07:00:54 51°13.859 2°55.618 -999 -999 -999 -999 -999
2007-04-23 07:00:59 51°13.868 2°55.612 -999 -999 -999 -999 -999
2007-04-23 07:01:04 51°13.877 2°55.606 -999 -999 -999 -999 -999
2007-04-23 07:01:09 51°13.886 2°55.599 -999 -999 -999 -999 -999
2007-04-23 07:01:14 51°13.896 2°55.593 -999 -999 -999 -999 -999
2007-04-23 07:01:19 51°13.905 2°55.586 -999 -999 -999 -999 -999
2007-04-23 07:01:24 51°13.914 2°55.579 -999 -999 -999 -999 -999
2007-04-23 07:01:29 51°13.924 2°55.572 -999 -999 -999 -999 -999
2007-04-23 07:01:34 51°13.934 2°55.565 -999 -999 -999 -999 -999
2007-04-23 07:01:39 51°13.944 2°55.558 -999 -999 -999 -999 -999
2007-04-23 07:01:44 51°13.954 2°55.551 -999 -999 -999 -999 -999
2007-04-23 07:01:49 51°13.964 2°55.543 -999 -999 -999 -999 -999
2007-04-23 07:01:54 51°13.974 2°55.536 -999 -999 -999 -999 -999
2007-04-23 07:01:59 51°13.984 2°55.529 -999 -999 -999 -999 -999
2007-04-23 07:02:04 51°13.994 2°55.522 -999 -999 -999 -999 -999
2007-04-23 07:02:09 51°14.004 2°55.514 -999 -999 -999 -999 -999
2007-04-23 07:02:14 51°14.015 2°55.507 -999 -999 -999 -999 -999
2007-04-23 07:02:19 51°14.025 2°55.5 -999 -999 -999 -999 -999
2007-04-23 07:02:24 51°14.035 2°55.493 -999 -999 -999 -999 -999
2007-04-23 07:02:29 51°14.046 2°55.485 -999 -999 -999 -999 -999
2007-04-23 07:02:34 51°14.056 2°55.478 -999 -999 -999 -999 -999
2007-04-23 07:02:39 51°14.067 2°55.47 -999 -999 -999 -999 -999
2007-04-23 07:02:44 51°14.077 2°55.463 -999 -999 -999 -999 -999
2007-04-23 07:02:49 51°14.088 2°55.456 -999 -999 -999 -999 -999
2007-04-23 07:02:54 51°14.099 2°55.448 -999 -999 -999 -999 -999
2007-04-23 07:02:59 51°14.109 2°55.44 -999 -999 -999 -999 -999
2007-04-23 07:03:04 51°14.118 2°55.431 -999 -999 -999 -999 -999
2007-04-23 07:03:09 51°14.128 2°55.422 -999 -999 -999 -999 -999
2007-04-23 07:03:14 51°14.138 2°55.413 -999 -999 -999 -999 -999
2007-04-23 07:03:19 51°14.148 2°55.403 -999 -999 -999 -999 -999
2007-04-23 07:03:24 51°14.159 2°55.393 -999 -999 -999 -999 -999
2007-04-23 07:03:29 51°14.169 2°55.382 -999 -999 -999 -999 -999
2007-04-23 07:03:34 51°14.18 2°55.37 -999 -999 -999 -999 -999
2007-04-23 07:03:39 51°14.191 2°55.357 -999 -999 -999 -999 -999
2007-04-23 07:03:44 51°14.202 2°55.344 -999 -999 -999 -999 -999
2007-04-23 07:03:49 51°14.212 2°55.329 -999 -999 -999 -999 -999
2007-04-23 07:03:54 51°14.223 2°55.315 -999 -999 -999 -999 -999
2007-04-23 07:03:59 51°14.234 2°55.299 -999 -999 -999 -999 -999
2007-04-23 07:04:04 51°14.245 2°55.282 -999 -999 -999 -999 -999
2007-04-23 07:04:09 51°14.256 2°55.263 -999 -999 -999 -999 -999
2007-04-23 07:04:14 51°14.267 2°55.243 -999 -999 -999 -999 -999
2007-04-23 07:04:19 51°14.278 2°55.223 -999 -999 -999 -999 -999
2007-04-23 07:04:24 51°14.29 2°55.202 -999 -999 -999 -999 -999
2007-04-23 07:04:29 51°14.302 2°55.18 -999 -999 -999 -999 -999
2007-04-23 07:04:34 51°14.313 2°55.158 -999 -999 -999 -999 -999
2007-04-23 07:04:39 51°14.324 2°55.136 -999 -999 -999 -999 -999
2007-04-23 07:04:44 51°14.336 2°55.113 -999 -999 -999 -999 -999
2007-04-23 07:04:49 51°14.347 2°55.09 -999 -999 -999 -999 -999
2007-04-23 07:04:54 51°14.358 2°55.067 -999 -999 -999 -999 -999
2007-04-23 07:04:58 51°14.367 2°55.048 -999 -999 -999 -999 -999
2007-04-23 07:05:03 51°14.379 2°55.026 -999 -999 -999 -999 -999
2007-04-23 07:05:09 51°14.394 2°55.001 -999 -999 -999 -999 -999
2007-04-23 07:05:15 51°14.411 2°54.977 -999 -999 -999 -999 -999
2007-04-23 07:05:19 51°14.422 2°54.961 -999 -999 -999 -999 -999
2007-04-23 07:05:24 51°14.436 2°54.942 -999 -999 -999 -999 -999
2007-04-23 07:05:29 51°14.451 2°54.923 -999 -999 -999 -999 -999
2007-04-23 07:05:35 51°14.469 2°54.902 -999 -999 -999 -999 -999
2007-04-23 07:05:38 51°14.478 2°54.892 -999 -999 -999 -999 -999
2007-04-23 07:05:44 51°14.497 2°54.873 -999 -999 -999 -999 -999
2007-04-23 07:05:48 51°14.51 2°54.86 -999 -999 -999 -999 -999
2007-04-23 07:05:53 51°14.525 2°54.844 -999 -999 -999 -999 -999
2007-04-23 07:05:59 51°14.544 2°54.825 -999 -999 -999 -999 -999
2007-04-23 07:06:04 51°14.56 2°54.81 -999 -999 -999 -999 -999
2007-04-23 07:06:08 51°14.573 2°54.798 -999 -999 -999 -999 -999
2007-04-23 07:06:13 51°14.589 2°54.782 -999 -999 -999 -999 -999
2007-04-23 07:06:18 51°14.604 2°54.767 -999 -999 -999 -999 -999
2007-04-23 07:06:24 51°14.623 2°54.749 -999 -999 -999 -999 -999
2007-04-23 07:06:29 51°14.64 2°54.734 -999 -999 -999 -999 -999
2007-04-23 07:06:33 51°14.652 2°54.722 -999 -999 -999 -999 -999
2007-04-23 07:06:38 51°14.669 2°54.708 -999 -999 -999 -999 -999
2007-04-23 07:06:44 51°14.688 2°54.69 -999 -999 -999 -999 -999
2007-04-23 07:06:48 51°14.701 2°54.678 -999 -999 -999 -999 -999
2007-04-23 07:06:53 51°14.716 2°54.662 -999 -999 -999 -999 -999
2007-04-23 07:06:58 51°14.732 2°54.647 -999 -999 -999 -999 -999
2007-04-23 07:07:04 51°14.751 2°54.628 -999 -999 -999 -999 -999
2007-04-23 07:07:09 51°14.766 2°54.612 -999 -999 -999 -999 -999
2007-04-23 07:07:14 51°14.782 2°54.596 -999 -999 -999 -999 -999
2007-04-23 07:07:18 51°14.795 2°54.584 -999 -999 -999 -999 -999
2007-04-23 07:07:24 51°14.813 2°54.565 -999 -999 -999 -999 -999
2007-04-23 07:07:29 51°14.829 2°54.55 -999 -999 -999 -999 -999
2007-04-23 07:07:33 51°14.842 2°54.538 -999 -999 -999 -999 -999
2007-04-23 07:07:38 51°14.858 2°54.523 -999 -999 -999 -999 -999
2007-04-23 07:07:43 51°14.874 2°54.508 -999 -999 -999 -999 -999
2007-04-23 07:07:48 51°14.89 2°54.493 -999 -999 -999 -999 -999
2007-04-23 07:07:54 51°14.909 2°54.476 -999 -999 -999 -999 -999
2007-04-23 07:07:58 51°14.922 2°54.464 -999 -999 -999 -999 -999
2007-04-23 07:08:04 51°14.94 2°54.446 -999 -999 -999 -999 -999
2007-04-23 07:08:08 51°14.953 2°54.434 -999 -999 -999 -999 -999
2007-04-23 07:08:13 51°14.968 2°54.418 -999 -999 -999 -999 -999
2007-04-23 07:08:18 51°14.984 2°54.403 -999 -999 -999 -999 -999
2007-04-23 07:08:24 51°15.002 2°54.384 -999 -999 -999 -999 -999
2007-04-23 07:08:28 51°15.014 2°54.371 -999 -999 -999 -999 -999
2007-04-23 07:08:33 51°15.03 2°54.355 -999 -999 -999 -999 -999
2007-04-23 07:08:39 51°15.048 2°54.338 -999 -999 -999 -999 -999
2007-04-23 07:08:44 51°15.064 2°54.322 -999 -999 -999 -999 -999
2007-04-23 07:08:48 51°15.077 2°54.311 -999 -999 -999 -999 -999
2007-04-23 07:08:54 51°15.096 2°54.293 -999 -999 -999 -999 -999
2007-04-23 07:08:59 51°15.111 2°54.278 -999 -999 -999 -999 -999
2007-04-23 07:09:04 51°15.127 2°54.264 -999 -999 -999 -999 -999
2007-04-23 07:09:09 51°15.143 2°54.249 -999 -999 -999 -999 -999
2007-04-23 07:09:14 51°15.159 2°54.234 -999 -999 -999 -999 -999
2007-04-23 07:09:19 51°15.175 2°54.218 -999 -999 -999 -999 -999
2007-04-23 07:09:24 51°15.19 2°54.202 -999 -999 -999 -999 -999
2007-04-23 07:09:29 51°15.206 2°54.186 -999 -999 -999 -999 -999
2007-04-23 07:09:34 51°15.221 2°54.17 -999 -999 -999 -999 -999
2007-04-23 07:09:39 51°15.237 2°54.154 -999 -999 -999 -999 -999
2007-04-23 07:09:44 51°15.252 2°54.139 -999 -999 -999 -999 -999
2007-04-23 07:09:49 51°15.268 2°54.123 -999 -999 -999 -999 -999
2007-04-23 07:09:54 51°15.284 2°54.109 -999 -999 -999 -999 -999
2007-04-23 07:09:59 51°15.3 2°54.093 -999 -999 -999 -999 -999
2007-04-23 07:10:04 51°15.316 2°54.078 -999 -999 -999 -999 -999
2007-04-23 07:10:09 51°15.331 2°54.063 -999 -999 -999 -999 -999
2007-04-23 07:10:14 51°15.347 2°54.048 -999 -999 -999 -999 -999
2007-04-23 07:10:19 51°15.362 2°54.032 -999 -999 -999 -999 -999
2007-04-23 07:10:24 51°15.378 2°54.017 -999 -999 -999 -999 -999
2007-04-23 07:10:29 51°15.394 2°54.002 -999 -999 -999 -999 -999
2007-04-23 07:10:34 51°15.409 2°53.987 -999 -999 -999 -999 -999
2007-04-23 07:10:39 51°15.425 2°53.971 -999 -999 -999 -999 -999
2007-04-23 07:10:44 51°15.44 2°53.956 -999 -999 -999 -999 -999
2007-04-23 07:10:49 51°15.456 2°53.941 -999 -999 -999 -999 -999
2007-04-23 07:10:54 51°15.471 2°53.925 -999 -999 -999 -999 -999
2007-04-23 07:10:59 51°15.486 2°53.909 -999 -999 -999 -999 -999
2007-04-23 07:11:04 51°15.502 2°53.894 -999 -999 -999 -999 -999
2007-04-23 07:11:09 51°15.518 2°53.879 -999 -999 -999 -999 -999
2007-04-23 07:11:14 51°15.533 2°53.864 -999 -999 -999 -999 -999
2007-04-23 07:11:19 51°15.549 2°53.849 -999 -999 -999 -999 -999
2007-04-23 07:11:24 51°15.565 2°53.835 -999 -999 -999 -999 -999
2007-04-23 07:11:29 51°15.581 2°53.821 -999 -999 -999 -999 -999
2007-04-23 07:11:34 51°15.597 2°53.807 -999 -999 -999 -999 -999
2007-04-23 07:11:39 51°15.613 2°53.793 -999 -999 -999 -999 -999
2007-04-23 07:11:44 51°15.63 2°53.779 -999 -999 -999 -999 -999
2007-04-23 07:11:49 51°15.646 2°53.764 -999 -999 -999 -999 -999
2007-04-23 07:11:54 51°15.662 2°53.751 -999 -999 -999 -999 -999
2007-04-23 07:11:59 51°15.678 2°53.736 -999 -999 -999 -999 -999
2007-04-23 07:12:04 51°15.694 2°53.722 -999 -999 -999 -999 -999
2007-04-23 07:12:09 51°15.71 2°53.708 -999 -999 -999 -999 -999
2007-04-23 07:12:14 51°15.726 2°53.693 -999 -999 -999 -999 -999
2007-04-23 07:12:19 51°15.742 2°53.679 -999 -999 -999 -999 -999
2007-04-23 07:12:24 51°15.758 2°53.665 -999 -999 -999 -999 -999
2007-04-23 07:12:29 51°15.774 2°53.651 -999 -999 -999 -999 -999
2007-04-23 07:12:34 51°15.791 2°53.637 -999 -999 -999 -999 -999
2007-04-23 07:12:39 51°15.807 2°53.623 -999 -999 -999 -999 -999
2007-04-23 07:12:44 51°15.823 2°53.609 -999 -999 -999 -999 -999
2007-04-23 07:12:49 51°15.839 2°53.595 -999 -999 -999 -999 -999
2007-04-23 07:12:54 51°15.856 2°53.58 -999 -999 -999 -999 -999
2007-04-23 07:12:59 51°15.872 2°53.566 -999 -999 -999 -999 -999
2007-04-23 07:13:04 51°15.888 2°53.552 -999 -999 -999 -999 -999
2007-04-23 07:13:09 51°15.904 2°53.538 -999 -999 -999 -999 -999
2007-04-23 07:13:14 51°15.92 2°53.523 -999 -999 -999 -999 -999
2007-04-23 07:13:19 51°15.936 2°53.509 -999 -999 -999 -999 -999
2007-04-23 07:13:24 51°15.953 2°53.496 -999 -999 -999 -999 -999
2007-04-23 07:13:29 51°15.969 2°53.483 -999 -999 -999 -999 -999
2007-04-23 07:13:34 51°15.986 2°53.47 -999 -999 -999 -999 -999
2007-04-23 07:13:39 51°16.003 2°53.457 -999 -999 -999 -999 -999
2007-04-23 07:13:44 51°16.02 2°53.445 -999 -999 -999 -999 -999
2007-04-23 07:13:49 51°16.036 2°53.433 -999 -999 -999 -999 -999
2007-04-23 07:13:54 51°16.054 2°53.422 -999 -999 -999 -999 -999
2007-04-23 07:13:59 51°16.071 2°53.41 -999 -999 -999 -999 -999
2007-04-23 07:14:04 51°16.088 2°53.399 -999 -999 -999 -999 -999
2007-04-23 07:14:09 51°16.105 2°53.387 -999 -999 -999 -999 -999
2007-04-23 07:14:14 51°16.122 2°53.376 -999 -999 -999 -999 -999
2007-04-23 07:14:19 51°16.139 2°53.364 -999 -999 -999 -999 -999
2007-04-23 07:14:24 51°16.156 2°53.352 -999 -999 -999 -999 -999
2007-04-23 07:14:29 51°16.173 2°53.34 -999 -999 -999 -999 -999
2007-04-23 07:14:34 51°16.19 2°53.329 -999 -999 -999 -999 -999
2007-04-23 07:14:39 51°16.207 2°53.317 -999 -999 -999 -999 -999
2007-04-23 07:14:44 51°16.224 2°53.305 -999 -999 -999 -999 -999
2007-04-23 07:14:49 51°16.241 2°53.293 -999 -999 -999 -999 -999
2007-04-23 07:14:54 51°16.258 2°53.281 -999 -999 -999 -999 -999
2007-04-23 07:14:59 51°16.275 2°53.268 -999 -999 -999 -999 -999
2007-04-23 07:15:04 51°16.292 2°53.256 -999 -999 -999 -999 -999
2007-04-23 07:15:09 51°16.309 2°53.245 -999 -999 -999 -999 -999
2007-04-23 07:15:14 51°16.326 2°53.233 -999 -999 -999 -999 -999
2007-04-23 07:15:19 51°16.343 2°53.22 -999 -999 -999 -999 -999
2007-04-23 07:15:24 51°16.359 2°53.208 -999 -999 -999 -999 -999
2007-04-23 07:15:29 51°16.377 2°53.196 -999 -999 -999 -999 -999
2007-04-23 07:15:34 51°16.393 2°53.184 -999 -999 -999 -999 -999
2007-04-23 07:15:39 51°16.41 2°53.172 -999 -999 -999 -999 -999
2007-04-23 07:15:44 51°16.427 2°53.16 -999 -999 -999 -999 -999
2007-04-23 07:15:49 51°16.444 2°53.148 -999 -999 -999 -999 -999
2007-04-23 07:15:54 51°16.461 2°53.137 -999 -999 -999 -999 -999
2007-04-23 07:15:59 51°16.478 2°53.124 -999 -999 -999 -999 -999
2007-04-23 07:16:04 51°16.495 2°53.112 -999 -999 -999 -999 -999
2007-04-23 07:16:09 51°16.512 2°53.099 -999 -999 -999 -999 -999
2007-04-23 07:16:14 51°16.528 2°53.085 -999 -999 -999 -999 -999
2007-04-23 07:16:19 51°16.545 2°53.072 -999 -999 -999 -999 -999
2007-04-23 07:16:24 51°16.561 2°53.059 -999 -999 -999 -999 -999
2007-04-23 07:16:29 51°16.578 2°53.045 -999 -999 -999 -999 -999
2007-04-23 07:16:34 51°16.595 2°53.032 -999 -999 -999 -999 -999
2007-04-23 07:16:39 51°16.611 2°53.019 -999 -999 -999 -999 -999
2007-04-23 07:16:44 51°16.628 2°53.006 -999 -999 -999 -999 -999
2007-04-23 07:16:49 51°16.645 2°52.993 -999 -999 -999 -999 -999
2007-04-23 07:16:54 51°16.661 2°52.979 -999 -999 -999 -999 -999
2007-04-23 07:16:59 51°16.678 2°52.966 -999 -999 -999 -999 -999
2007-04-23 07:17:04 51°16.695 2°52.953 -999 -999 -999 -999 -999
2007-04-23 07:17:09 51°16.712 2°52.94 -999 -999 -999 -999 -999
2007-04-23 07:17:14 51°16.729 2°52.927 -999 -999 -999 -999 -999
2007-04-23 07:17:19 51°16.746 2°52.914 -999 -999 -999 -999 -999
2007-04-23 07:17:24 51°16.762 2°52.901 -999 -999 -999 -999 -999
2007-04-23 07:17:29 51°16.779 2°52.888 -999 -999 -999 -999 -999
2007-04-23 07:17:34 51°16.796 2°52.875 -999 -999 -999 -999 -999
2007-04-23 07:17:39 51°16.812 2°52.862 -999 -999 -999 -999 -999
2007-04-23 07:17:44 51°16.829 2°52.848 -999 -999 -999 -999 -999
2007-04-23 07:17:49 51°16.846 2°52.835 -999 -999 -999 -999 -999
2007-04-23 07:17:54 51°16.862 2°52.823 -999 -999 -999 -999 -999
2007-04-23 07:17:59 51°16.879 2°52.809 -999 -999 -999 -999 -999
2007-04-23 07:18:04 51°16.896 2°52.797 -999 -999 -999 -999 -999
2007-04-23 07:18:09 51°16.913 2°52.784 -999 -999 -999 -999 -999
2007-04-23 07:18:14 51°16.929 2°52.771 -999 -999 -999 -999 -999
2007-04-23 07:18:19 51°16.946 2°52.758 -999 -999 -999 -999 -999
2007-04-23 07:18:24 51°16.963 2°52.745 -999 -999 -999 -999 -999
2007-04-23 07:18:29 51°16.98 2°52.732 -999 -999 -999 -999 -999
2007-04-23 07:18:34 51°16.997 2°52.719 -999 -999 -999 -999 -999
2007-04-23 07:18:39 51°17.013 2°52.706 -999 -999 -999 -999 -999
2007-04-23 07:18:44 51°17.03 2°52.693 -999 -999 -999 -999 -999
2007-04-23 07:18:49 51°17.047 2°52.68 -999 -999 -999 -999 -999
2007-04-23 07:18:54 51°17.064 2°52.666 -999 -999 -999 -999 -999
2007-04-23 07:18:59 51°17.081 2°52.652 -999 -999 -999 -999 -999
2007-04-23 07:19:04 51°17.097 2°52.638 -999 -999 -999 -999 -999
2007-04-23 07:19:09 51°17.113 2°52.624 -999 -999 -999 -999 -999
2007-04-23 07:19:14 51°17.13 2°52.611 -999 -999 -999 -999 -999
2007-04-23 07:19:19 51°17.146 2°52.597 -999 -999 -999 -999 -999
2007-04-23 07:19:24 51°17.162 2°52.584 -999 -999 -999 -999 -999
2007-04-23 07:19:29 51°17.179 2°52.571 -999 -999 -999 -999 -999
2007-04-23 07:19:34 51°17.195 2°52.557 -999 -999 -999 -999 -999
2007-04-23 07:19:39 51°17.212 2°52.545 -999 -999 -999 -999 -999
2007-04-23 07:19:44 51°17.228 2°52.531 -999 -999 -999 -999 -999
2007-04-23 07:19:49 51°17.245 2°52.518 -999 -999 -999 -999 -999
2007-04-23 07:19:54 51°17.261 2°52.504 -999 -999 -999 -999 -999
2007-04-23 07:19:59 51°17.277 2°52.49 -999 -999 -999 -999 -999
2007-04-23 07:20:04 51°17.294 2°52.477 -999 -999 -999 -999 -999
2007-04-23 07:20:09 51°17.31 2°52.463 -999 -999 -999 -999 -999
2007-04-23 07:20:14 51°17.326 2°52.449 -999 -999 -999 -999 -999
2007-04-23 07:20:19 51°17.342 2°52.433 -999 -999 -999 -999 -999
2007-04-23 07:20:24 51°17.358 2°52.418 -999 -999 -999 -999 -999
2007-04-23 07:20:29 51°17.373 2°52.402 -999 -999 -999 -999 -999
2007-04-23 07:20:34 51°17.389 2°52.387 -999 -999 -999 -999 -999
2007-04-23 07:20:39 51°17.405 2°52.371 -999 -999 -999 -999 -999
2007-04-23 07:20:44 51°17.42 2°52.355 -999 -999 -999 -999 -999
2007-04-23 07:20:49 51°17.436 2°52.339 -999 -999 -999 -999 -999
2007-04-23 07:20:54 51°17.451 2°52.322 -999 -999 -999 -999 -999
2007-04-23 07:20:59 51°17.466 2°52.304 -999 -999 -999 -999 -999
2007-04-23 07:21:04 51°17.481 2°52.288 -999 -999 -999 -999 -999
2007-04-23 07:21:09 51°17.496 2°52.271 -999 -999 -999 -999 -999
2007-04-23 07:21:14 51°17.512 2°52.255 -999 -999 -999 -999 -999
2007-04-23 07:21:19 51°17.527 2°52.239 -999 -999 -999 -999 -999
2007-04-23 07:21:24 51°17.543 2°52.223 -999 -999 -999 -999 -999
2007-04-23 07:21:29 51°17.558 2°52.207 -999 -999 -999 -999 -999
2007-04-23 07:21:34 51°17.574 2°52.191 -999 -999 -999 -999 -999
2007-04-23 07:21:39 51°17.589 2°52.176 -999 -999 -999 -999 -999
2007-04-23 07:21:44 51°17.604 2°52.159 -999 -999 -999 -999 -999
2007-04-23 07:21:49 51°17.62 2°52.143 -999 -999 -999 -999 -999
2007-04-23 07:21:54 51°17.635 2°52.127 -999 -999 -999 -999 -999
2007-04-23 07:21:59 51°17.651 2°52.111 -999 -999 -999 -999 -999
2007-04-23 07:22:04 51°17.667 2°52.095 -999 -999 -999 -999 -999
2007-04-23 07:22:09 51°17.682 2°52.08 -999 -999 -999 -999 -999
2007-04-23 07:22:14 51°17.698 2°52.064 -999 -999 -999 -999 -999
2007-04-23 07:22:19 51°17.714 2°52.048 -999 -999 -999 -999 -999
2007-04-23 07:22:24 51°17.729 2°52.032 -999 -999 -999 -999 -999
2007-04-23 07:22:29 51°17.744 2°52.016 -999 -999 -999 -999 -999
2007-04-23 07:22:34 51°17.76 2°51.999 -999 -999 -999 -999 -999
2007-04-23 07:22:39 51°17.775 2°51.983 -999 -999 -999 -999 -999
2007-04-23 07:22:44 51°17.791 2°51.967 -999 -999 -999 -999 -999
2007-04-23 07:22:49 51°17.806 2°51.951 -999 -999 -999 -999 -999
2007-04-23 07:22:54 51°17.821 2°51.935 -999 -999 -999 -999 -999
2007-04-23 07:22:59 51°17.836 2°51.918 -999 -999 -999 -999 -999
2007-04-23 07:23:05 51°17.854 2°51.897 -999 -999 -999 -999 -999
2007-04-23 07:23:09 51°17.866 2°51.883 -999 -999 -999 -999 -999
2007-04-23 07:23:14 51°17.88 2°51.865 -999 -999 -999 -999 -999
2007-04-23 07:23:19 51°17.895 2°51.847 -999 -999 -999 -999 -999
2007-04-23 07:23:24 51°17.909 2°51.828 -999 -999 -999 -999 -999
2007-04-23 07:23:29 51°17.923 2°51.81 -999 -999 -999 -999 -999
2007-04-23 07:23:34 51°17.937 2°51.791 -999 -999 -999 -999 -999
2007-04-23 07:23:39 51°17.952 2°51.773 -999 -999 -999 -999 -999
2007-04-23 07:23:44 51°17.966 2°51.754 -999 -999 -999 -999 -999
2007-04-23 07:23:49 51°17.98 2°51.736 -999 -999 -999 -999 -999
2007-04-23 07:23:54 51°17.994 2°51.717 -999 -999 -999 -999 -999
2007-04-23 07:23:59 51°18.008 2°51.698 -999 -999 -999 -999 -999
2007-04-23 07:24:04 51°18.022 2°51.678 -999 -999 -999 -999 -999
2007-04-23 07:24:09 51°18.036 2°51.659 -999 -999 -999 -999 -999
2007-04-23 07:24:14 51°18.05 2°51.64 -999 -999 -999 -999 -999
2007-04-23 07:24:19 51°18.064 2°51.62 -999 -999 -999 -999 -999
2007-04-23 07:24:24 51°18.078 2°51.601 -999 -999 -999 -999 -999
2007-04-23 07:24:29 51°18.092 2°51.582 -999 -999 -999 -999 -999
2007-04-23 07:24:34 51°18.106 2°51.563 -999 -999 -999 -999 -999
2007-04-23 07:24:39 51°18.12 2°51.543 -999 -999 -999 -999 -999
2007-04-23 07:24:44 51°18.134 2°51.524 -999 -999 -999 -999 -999
2007-04-23 07:24:49 51°18.149 2°51.505 -999 -999 -999 -999 -999
2007-04-23 07:24:54 51°18.163 2°51.486 -999 -999 -999 -999 -999
2007-04-23 07:24:59 51°18.177 2°51.467 -999 -999 -999 -999 -999
2007-04-23 07:25:04 51°18.191 2°51.447 -999 -999 -999 -999 -999
2007-04-23 07:25:09 51°18.205 2°51.428 -999 -999 -999 -999 -999
2007-04-23 07:25:14 51°18.219 2°51.409 -999 -999 -999 -999 -999
2007-04-23 07:25:19 51°18.232 2°51.391 -999 -999 -999 -999 -999
2007-04-23 07:25:24 51°18.245 2°51.374 -999 -999 -999 -999 -999
2007-04-23 07:25:29 51°18.256 2°51.358 -999 -999 -999 -999 -999
2007-04-23 07:25:34 51°18.267 2°51.342 -999 -999 -999 -999 -999
2007-04-23 07:25:39 51°18.278 2°51.327 -999 -999 -999 -999 -999
2007-04-23 07:25:44 51°18.289 2°51.313 -999 -999 -999 -999 -999
2007-04-23 07:25:49 51°18.299 2°51.299 -999 -999 -999 -999 -999
2007-04-23 07:25:54 51°18.309 2°51.286 -999 -999 -999 -999 -999
2007-04-23 07:25:59 51°18.319 2°51.273 -999 -999 -999 -999 -999
2007-04-23 07:26:04 51°18.329 2°51.261 -999 -999 -999 -999 -999
2007-04-23 07:26:09 51°18.338 2°51.248 -999 -999 -999 -999 -999
2007-04-23 07:26:14 51°18.347 2°51.236 -999 -999 -999 -999 -999
2007-04-23 07:26:19 51°18.356 2°51.224 -999 -999 -999 -999 -999
2007-04-23 07:26:24 51°18.364 2°51.213 -999 -999 -999 -999 -999
2007-04-23 07:26:29 51°18.372 2°51.202 -999 -999 -999 -999 -999
2007-04-23 07:26:34 51°18.38 2°51.191 -999 -999 -999 -999 -999
2007-04-23 07:26:39 51°18.387 2°51.18 -999 -999 -999 -999 -999
2007-04-23 07:26:44 51°18.395 2°51.17 -999 -999 -999 -999 -999
2007-04-23 07:26:49 51°18.402 2°51.16 -999 -999 -999 -999 -999
2007-04-23 07:26:54 51°18.408 2°51.15 -999 -999 -999 -999 -999
2007-04-23 07:26:59 51°18.415 2°51.14 -999 -999 -999 -999 -999
2007-04-23 07:27:04 51°18.42 2°51.13 -999 -999 -999 -999 -999
2007-04-23 07:27:09 51°18.426 2°51.12 -999 -999 -999 -999 -999
2007-04-23 07:27:14 51°18.43 2°51.111 -999 -999 -999 -999 -999
2007-04-23 07:27:19 51°18.435 2°51.101 -999 -999 -999 -999 -999
2007-04-23 07:27:25 51°18.439 2°51.09 -999 -999 -999 -999 -999
2007-04-23 07:27:29 51°18.442 2°51.083 -999 -999 -999 -999 -999
2007-04-23 07:27:34 51°18.446 2°51.074 -999 -999 -999 -999 -999
2007-04-23 07:27:39 51°18.45 2°51.065 -999 -999 -999 -999 -999
2007-04-23 07:27:44 51°18.453 2°51.056 -999 -999 -999 -999 -999
2007-04-23 07:27:49 51°18.457 2°51.048 -999 -999 -999 -999 -999
2007-04-23 07:27:54 51°18.46 2°51.04 -999 -999 -999 -999 -999
2007-04-23 07:27:59 51°18.464 2°51.032 -999 -999 -999 -999 -999
2007-04-23 07:28:04 51°18.468 2°51.024 -999 -999 -999 -999 -999
2007-04-23 07:28:09 51°18.472 2°51.017 -999 -999 -999 -999 -999
2007-04-23 07:28:14 51°18.475 2°51.01 -999 -999 -999 -999 -999
2007-04-23 07:28:19 51°18.479 2°51.003 -999 -999 -999 -999 -999
2007-04-23 07:28:24 51°18.482 2°50.997 -999 -999 -999 -999 -999
2007-04-23 07:28:29 51°18.485 2°50.992 -999 -999 -999 -999 -999
2007-04-23 07:28:34 51°18.487 2°50.988 -999 -999 -999 -999 -999
2007-04-23 07:28:39 51°18.49 2°50.985 -999 -999 -999 -999 -999
2007-04-23 07:28:44 51°18.491 2°50.982 -999 -999 -999 -999 -999
2007-04-23 07:28:49 51°18.492 2°50.981 -999 -999 -999 -999 -999
2007-04-23 07:28:54 51°18.493 2°50.981 -999 -999 -999 -999 -999
2007-04-23 07:28:59 51°18.494 2°50.981 -999 -999 -999 -999 -999
2007-04-23 07:29:04 51°18.495 2°50.98 -999 -999 -999 -999 -999
2007-04-23 07:29:09 51°18.495 2°50.98 -999 -999 -999 -999 -999
2007-04-23 07:29:14 51°18.496 2°50.98 -999 -999 -999 -999 -999
2007-04-23 07:29:19 51°18.497 2°50.98 -999 -999 -999 -999 -999
2007-04-23 07:29:24 51°18.498 2°50.98 -999 -999 -999 -999 -999
2007-04-23 07:29:29 51°18.499 2°50.98 -999 -999 -999 -999 -999
2007-04-23 07:29:34 51°18.5 2°50.98 -999 -999 -999 -999 -999
2007-04-23 07:29:39 51°18.5 2°50.98 -999 -999 -999 -999 -999
2007-04-23 07:29:45 51°18.501 2°50.98 -999 -999 -999 -999 -999
2007-04-23 07:29:49 51°18.502 2°50.98 -999 -999 -999 -999 -999
2007-04-23 07:29:54 51°18.503 2°50.98 -999 -999 -999 -999 -999
2007-04-23 07:29:59 51°18.504 2°50.98 -999 -999 -999 -999 -999
2007-04-23 07:30:04 51°18.505 2°50.98 -999 -999 -999 -999 -999
2007-04-23 07:30:09 51°18.506 2°50.98 -999 -999 -999 -999 -999
2007-04-23 07:30:15 51°18.507 2°50.98 -999 -999 -999 -999 -999
2007-04-23 07:30:19 51°18.508 2°50.98 -999 -999 -999 -999 -999
2007-04-23 07:30:24 51°18.509 2°50.98 -999 -999 -999 -999 -999
2007-04-23 07:30:29 51°18.51 2°50.98 -999 -999 -999 -999 -999
2007-04-23 07:30:34 51°18.511 2°50.98 -999 -999 -999 -999 -999
2007-04-23 07:30:39 51°18.512 2°50.98 -999 -999 -999 -999 -999
2007-04-23 07:30:45 51°18.513 2°50.98 -999 -999 -999 -999 -999
2007-04-23 07:30:49 51°18.513 2°50.98 -999 -999 -999 -999 -999
2007-04-23 07:30:54 51°18.514 2°50.98 -999 -999 -999 -999 -999
2007-04-23 07:31:00 51°18.516 2°50.981 -999 -999 -999 -999 -999
2007-04-23 07:31:05 51°18.516 2°50.981 -999 -999 -999 -999 -999
2007-04-23 07:31:09 51°18.517 2°50.981 -999 -999 -999 -999 -999
2007-04-23 07:31:14 51°18.518 2°50.981 -999 -999 -999 -999 -999
2007-04-23 07:31:20 51°18.519 2°50.981 -999 -999 -999 -999 -999
2007-04-23 07:31:25 51°18.52 2°50.981 -999 -999 -999 -999 -999
2007-04-23 07:31:29 51°18.521 2°50.981 -999 -999 -999 -999 -999
2007-04-23 07:31:35 51°18.522 2°50.981 -999 -999 -999 -999 -999
2007-04-23 07:31:39 51°18.523 2°50.982 -999 -999 -999 -999 -999
2007-04-23 07:31:45 51°18.524 2°50.982 -999 -999 -999 -999 -999
2007-04-23 07:31:49 51°18.525 2°50.982 -999 -999 -999 -999 -999
2007-04-23 07:31:54 51°18.526 2°50.982 -999 -999 -999 -999 -999
2007-04-23 07:31:59 51°18.527 2°50.983 -999 -999 -999 -999 -999
2007-04-23 07:32:04 51°18.528 2°50.983 -999 -999 -999 -999 -999
2007-04-23 07:32:09 51°18.528 2°50.983 -999 -999 -999 -999 -999
2007-04-23 07:32:14 51°18.529 2°50.983 -999 -999 -999 -999 -999
2007-04-23 07:32:19 51°18.53 2°50.984 -999 -999 -999 -999 -999
2007-04-23 07:32:24 51°18.531 2°50.984 -999 -999 -999 -999 -999
2007-04-23 07:32:29 51°18.532 2°50.984 -999 -999 -999 -999 -999
2007-04-23 07:32:34 51°18.533 2°50.984 -999 -999 -999 -999 -999
2007-04-23 07:32:39 51°18.534 2°50.985 -999 -999 -999 -999 -999
2007-04-23 07:32:44 51°18.535 2°50.985 -999 -999 -999 -999 -999
2007-04-23 07:32:49 51°18.536 2°50.986 -999 -999 -999 -999 -999
2007-04-23 07:32:54 51°18.537 2°50.986 -999 -999 -999 -999 -999
2007-04-23 07:32:59 51°18.538 2°50.986 -999 -999 -999 -999 -999
2007-04-23 07:33:04 51°18.539 2°50.987 -999 -999 -999 -999 -999
2007-04-23 07:33:09 51°18.54 2°50.987 -999 -999 -999 -999 -999
2007-04-23 07:33:14 51°18.54 2°50.987 -999 -999 -999 -999 -999
2007-04-23 07:33:19 51°18.541 2°50.988 -999 -999 -999 -999 -999
2007-04-23 07:33:24 51°18.542 2°50.988 -999 -999 -999 -999 -999
2007-04-23 07:33:29 51°18.543 2°50.988 -999 -999 -999 -999 -999
2007-04-23 07:33:34 51°18.544 2°50.989 -999 -999 -999 -999 -999
2007-04-23 07:33:39 51°18.545 2°50.989 -999 -999 -999 -999 -999
2007-04-23 07:33:44 51°18.546 2°50.99 -999 -999 -999 -999 -999
2007-04-23 07:33:49 51°18.546 2°50.99 -999 -999 -999 -999 -999
2007-04-23 07:33:54 51°18.547 2°50.99 -999 -999 -999 -999 -999
2007-04-23 07:33:59 51°18.548 2°50.991 -999 -999 -999 -999 -999
2007-04-23 07:34:04 51°18.549 2°50.991 -999 -999 -999 -999 -999
2007-04-23 07:34:09 51°18.55 2°50.991 -999 -999 -999 -999 -999
2007-04-23 07:34:14 51°18.551 2°50.992 -999 -999 -999 -999 -999
2007-04-23 07:34:19 51°18.552 2°50.992 -999 -999 -999 -999 -999
2007-04-23 07:34:25 51°18.553 2°50.993 -999 -999 -999 -999 -999
2007-04-23 07:34:29 51°18.554 2°50.993 -999 -999 -999 -999 -999
2007-04-23 07:34:34 51°18.555 2°50.993 -999 -999 -999 -999 -999
2007-04-23 07:34:39 51°18.556 2°50.994 -999 -999 -999 -999 -999
2007-04-23 07:34:44 51°18.557 2°50.994 -999 -999 -999 -999 -999
2007-04-23 07:34:49 51°18.557 2°50.994 -999 -999 -999 -999 -999
2007-04-23 07:34:54 51°18.558 2°50.995 -999 -999 -999 -999 -999
2007-04-23 07:34:59 51°18.559 2°50.995 -999 -999 -999 -999 -999
2007-04-23 07:35:04 51°18.56 2°50.996 -999 -999 -999 -999 -999
2007-04-23 07:35:09 51°18.561 2°50.996 -999 -999 -999 -999 -999
2007-04-23 07:35:14 51°18.562 2°50.997 -999 -999 -999 -999 -999
2007-04-23 07:35:19 51°18.563 2°50.997 -999 -999 -999 -999 -999
2007-04-23 07:35:24 51°18.563 2°50.997 -999 -999 -999 -999 -999
2007-04-23 07:35:29 51°18.564 2°50.998 -999 -999 -999 -999 -999
2007-04-23 07:35:34 51°18.565 2°50.998 -999 -999 -999 -999 -999
2007-04-23 07:35:39 51°18.567 2°50.998 -999 -999 -999 -999 -999
2007-04-23 07:35:44 51°18.569 2°50.998 -999 -999 -999 -999 -999
2007-04-23 07:35:49 51°18.572 2°50.998 -999 -999 -999 -999 -999
2007-04-23 07:35:54 51°18.575 2°50.997 -999 -999 -999 -999 -999
2007-04-23 07:35:59 51°18.58 2°50.997 -999 -999 -999 -999 -999
2007-04-23 07:36:04 51°18.585 2°50.997 -999 -999 -999 -999 -999
2007-04-23 07:36:09 51°18.592 2°50.997 -999 -999 -999 -999 -999
2007-04-23 07:36:14 51°18.6 2°50.999 -999 -999 -999 -999 -999
2007-04-23 07:36:19 51°18.608 2°51.002 -999 -999 -999 -999 -999
2007-04-23 07:36:24 51°18.617 2°51.006 -999 -999 -999 -999 -999
2007-04-23 07:36:29 51°18.625 2°51.012 -999 -999 -999 -999 -999
2007-04-23 07:36:34 51°18.634 2°51.02 -999 -999 -999 -999 -999
2007-04-23 07:36:39 51°18.643 2°51.03 -999 -999 -999 -999 -999
2007-04-23 07:36:45 51°18.653 2°51.045 -999 -999 -999 -999 -999
2007-04-23 07:36:49 51°18.659 2°51.056 -999 -999 -999 -999 -999
2007-04-23 07:36:54 51°18.666 2°51.073 -999 -999 -999 -999 -999
2007-04-23 07:36:59 51°18.672 2°51.092 -999 -999 -999 -999 -999
2007-04-23 07:37:04 51°18.677 2°51.112 -999 -999 -999 -999 -999
2007-04-23 07:37:09 51°18.681 2°51.134 -999 -999 -999 -999 -999
2007-04-23 07:37:14 51°18.683 2°51.156 -999 -999 -999 -999 -999
2007-04-23 07:37:19 51°18.686 2°51.179 -999 -999 -999 -999 -999
2007-04-23 07:37:24 51°18.689 2°51.203 -999 -999 -999 -999 -999
2007-04-23 07:37:29 51°18.692 2°51.227 -999 -999 -999 -999 -999
2007-04-23 07:37:34 51°18.695 2°51.251 -999 -999 -999 -999 -999
2007-04-23 07:37:39 51°18.699 2°51.275 -999 -999 -999 -999 -999
2007-04-23 07:37:44 51°18.703 2°51.299 -999 -999 -999 -999 -999
2007-04-23 07:37:49 51°18.708 2°51.324 -999 -999 -999 -999 -999
2007-04-23 07:37:54 51°18.713 2°51.348 -999 -999 -999 -999 -999
2007-04-23 07:37:59 51°18.718 2°51.373 -999 -999 -999 -999 -999
2007-04-23 07:38:04 51°18.724 2°51.397 -999 -999 -999 -999 -999
2007-04-23 07:38:09 51°18.729 2°51.422 -999 -999 -999 -999 -999
2007-04-23 07:38:14 51°18.735 2°51.446 -999 -999 -999 -999 -999
2007-04-23 07:38:19 51°18.741 2°51.47 -999 -999 -999 -999 -999
2007-04-23 07:38:25 51°18.749 2°51.5 -999 -999 -999 -999 -999
2007-04-23 07:38:29 51°18.753 2°51.519 -999 -999 -999 -999 -999
2007-04-23 07:38:34 51°18.759 2°51.544 -999 -999 -999 -999 -999
2007-04-23 07:38:39 51°18.765 2°51.568 -999 -999 -999 -999 -999
2007-04-23 07:38:44 51°18.771 2°51.593 -999 -999 -999 -999 -999
2007-04-23 07:38:49 51°18.777 2°51.618 -999 -999 -999 -999 -999
2007-04-23 07:38:54 51°18.783 2°51.642 -999 -999 -999 -999 -999
2007-04-23 07:38:59 51°18.788 2°51.668 -999 -999 -999 -999 -999
2007-04-23 07:39:05 51°18.795 2°51.698 -999 -999 -999 -999 -999
2007-04-23 07:39:09 51°18.799 2°51.719 -999 -999 -999 -999 -999
2007-04-23 07:39:14 51°18.806 2°51.746 -999 -999 -999 -999 -999
2007-04-23 07:39:19 51°18.812 2°51.773 -999 -999 -999 -999 -999
2007-04-23 07:39:24 51°18.818 2°51.8 -999 -999 -999 -999 -999
2007-04-23 07:39:29 51°18.825 2°51.827 -999 -999 -999 -999 -999
2007-04-23 07:39:34 51°18.831 2°51.855 -999 -999 -999 -999 -999
2007-04-23 07:39:39 51°18.838 2°51.882 -999 -999 -999 -999 -999
2007-04-23 07:39:44 51°18.844 2°51.91 -999 -999 -999 -999 -999
2007-04-23 07:39:49 51°18.851 2°51.938 -999 -999 -999 -999 -999
2007-04-23 07:39:54 51°18.857 2°51.965 -999 -999 -999 -999 -999
2007-04-23 07:39:59 51°18.863 2°51.993 -999 -999 -999 -999 -999
2007-04-23 07:40:04 51°18.87 2°52.02 -999 -999 -999 -999 -999
2007-04-23 07:40:09 51°18.876 2°52.048 -999 -999 -999 -999 -999
2007-04-23 07:40:14 51°18.882 2°52.076 -999 -999 -999 -999 -999
2007-04-23 07:40:19 51°18.889 2°52.104 -999 -999 -999 -999 -999
2007-04-23 07:40:24 51°18.895 2°52.131 -999 -999 -999 -999 -999
2007-04-23 07:40:29 51°18.902 2°52.159 -999 -999 -999 -999 -999
2007-04-23 07:40:34 51°18.908 2°52.187 -999 -999 -999 -999 -999
2007-04-23 07:40:39 51°18.915 2°52.215 -999 -999 -999 -999 -999
2007-04-23 07:40:44 51°18.921 2°52.243 -999 -999 -999 -999 -999
2007-04-23 07:40:49 51°18.927 2°52.271 -999 -999 -999 -999 -999
2007-04-23 07:40:54 51°18.933 2°52.298 -999 -999 -999 -999 -999
2007-04-23 07:40:59 51°18.939 2°52.326 -999 -999 -999 -999 -999
2007-04-23 07:41:05 51°18.947 2°52.359 -999 -999 -999 -999 -999
2007-04-23 07:41:09 51°18.952 2°52.382 -999 -999 -999 -999 -999
2007-04-23 07:41:14 51°18.958 2°52.41 -999 -999 -999 -999 -999
2007-04-23 07:41:19 51°18.964 2°52.437 -999 -999 -999 -999 -999
2007-04-23 07:41:24 51°18.971 2°52.465 -999 -999 -999 -999 -999
2007-04-23 07:41:29 51°18.977 2°52.493 -999 -999 -999 -999 -999
2007-04-23 07:41:34 51°18.983 2°52.521 -999 -999 -999 -999 -999
2007-04-23 07:41:39 51°18.99 2°52.549 -999 -999 -999 -999 -999
2007-04-23 07:41:44 51°18.996 2°52.577 -999 -999 -999 -999 -999
2007-04-23 07:41:49 51°19.002 2°52.604 -999 -999 -999 -999 -999
2007-04-23 07:41:54 51°19.009 2°52.632 -999 -999 -999 -999 -999
2007-04-23 07:41:59 51°19.015 2°52.66 -999 -999 -999 -999 -999
2007-04-23 07:42:04 51°19.021 2°52.688 -999 -999 -999 -999 -999
2007-04-23 07:42:09 51°19.027 2°52.716 -999 -999 -999 -999 -999
2007-04-23 07:42:14 51°19.033 2°52.744 -999 -999 -999 -999 -999
2007-04-23 07:42:19 51°19.039 2°52.772 -999 -999 -999 -999 -999
2007-04-23 07:42:24 51°19.046 2°52.799 -999 -999 -999 -999 -999
2007-04-23 07:42:29 51°19.052 2°52.827 -999 -999 -999 -999 -999
2007-04-23 07:42:34 51°19.058 2°52.855 -999 -999 -999 -999 -999
2007-04-23 07:42:39 51°19.065 2°52.883 -999 -999 -999 -999 -999
2007-04-23 07:42:44 51°19.071 2°52.911 -999 -999 -999 -999 -999
2007-04-23 07:42:49 51°19.077 2°52.938 -999 -999 -999 -999 -999
2007-04-23 07:42:54 51°19.083 2°52.966 -999 -999 -999 -999 -999
2007-04-23 07:42:59 51°19.09 2°52.994 -999 -999 -999 -999 -999
2007-04-23 07:43:04 51°19.096 2°53.022 -999 -999 -999 -999 -999
2007-04-23 07:43:09 51°19.102 2°53.05 -999 -999 -999 -999 -999
2007-04-23 07:43:14 51°19.109 2°53.077 -999 -999 -999 -999 -999
2007-04-23 07:43:19 51°19.115 2°53.105 -999 -999 -999 -999 -999
2007-04-23 07:43:25 51°19.123 2°53.138 -999 -999 -999 -999 -999
2007-04-23 07:43:29 51°19.128 2°53.16 -999 -999 -999 -999 -999
2007-04-23 07:43:34 51°19.134 2°53.188 -999 -999 -999 -999 -999
2007-04-23 07:43:39 51°19.14 2°53.216 -999 -999 -999 -999 -999
2007-04-23 07:43:44 51°19.146 2°53.244 -999 -999 -999 -999 -999
2007-04-23 07:43:49 51°19.152 2°53.272 -999 -999 -999 -999 -999
2007-04-23 07:43:54 51°19.159 2°53.3 -999 -999 -999 -999 -999
2007-04-23 07:43:59 51°19.164 2°53.328 -999 -999 -999 -999 -999
2007-04-23 07:44:04 51°19.171 2°53.356 -999 -999 -999 -999 -999
2007-04-23 07:44:09 51°19.177 2°53.384 -999 -999 -999 -999 -999
2007-04-23 07:44:14 51°19.183 2°53.412 -999 -999 -999 -999 -999
2007-04-23 07:44:19 51°19.189 2°53.44 -999 -999 -999 -999 -999
2007-04-23 07:44:24 51°19.195 2°53.468 -999 -999 -999 -999 -999
2007-04-23 07:44:29 51°19.202 2°53.496 -999 -999 -999 -999 -999
2007-04-23 07:44:34 51°19.208 2°53.524 -999 -999 -999 -999 -999
2007-04-23 07:44:39 51°19.214 2°53.552 -999 -999 -999 -999 -999
2007-04-23 07:44:44 51°19.221 2°53.58 -999 -999 -999 -999 -999
2007-04-23 07:44:49 51°19.227 2°53.607 -999 -999 -999 -999 -999
2007-04-23 07:44:54 51°19.233 2°53.635 -999 -999 -999 -999 -999
2007-04-23 07:44:59 51°19.239 2°53.664 -999 -999 -999 -999 -999
2007-04-23 07:45:04 51°19.246 2°53.691 -999 -999 -999 -999 -999
2007-04-23 07:45:09 51°19.252 2°53.72 -999 -999 -999 -999 -999
2007-04-23 07:45:14 51°19.258 2°53.747 -999 -999 -999 -999 -999
2007-04-23 07:45:19 51°19.264 2°53.775 -999 -999 -999 -999 -999
2007-04-23 07:45:24 51°19.27 2°53.803 -999 -999 -999 -999 -999
2007-04-23 07:45:29 51°19.277 2°53.831 -999 -999 -999 -999 -999
2007-04-23 07:45:34 51°19.283 2°53.86 -999 -999 -999 -999 -999
2007-04-23 07:45:39 51°19.29 2°53.888 -999 -999 -999 -999 -999
2007-04-23 07:45:45 51°19.297 2°53.921 -999 -999 -999 -999 -999
2007-04-23 07:45:49 51°19.302 2°53.944 -999 -999 -999 -999 -999
2007-04-23 07:45:54 51°19.308 2°53.972 -999 -999 -999 -999 -999
2007-04-23 07:45:59 51°19.315 2°54 -999 -999 -999 -999 -999
2007-04-23 07:46:04 51°19.321 2°54.027 -999 -999 -999 -999 -999
2007-04-23 07:46:09 51°19.328 2°54.055 -999 -999 -999 -999 -999
2007-04-23 07:46:14 51°19.334 2°54.083 -999 -999 -999 -999 -999
2007-04-23 07:46:19 51°19.34 2°54.111 -999 -999 -999 -999 -999
2007-04-23 07:46:24 51°19.347 2°54.138 -999 -999 -999 -999 -999
2007-04-23 07:46:29 51°19.353 2°54.166 -999 -999 -999 -999 -999
2007-04-23 07:46:34 51°19.359 2°54.194 -999 -999 -999 -999 -999
2007-04-23 07:46:39 51°19.365 2°54.222 -999 -999 -999 -999 -999
2007-04-23 07:46:44 51°19.371 2°54.249 -999 -999 -999 -999 -999
2007-04-23 07:46:49 51°19.378 2°54.277 -999 -999 -999 -999 -999
2007-04-23 07:46:54 51°19.384 2°54.305 -999 -999 -999 -999 -999
2007-04-23 07:46:59 51°19.39 2°54.333 -999 -999 -999 -999 -999
2007-04-23 07:47:04 51°19.396 2°54.36 -999 -999 -999 -999 -999
2007-04-23 07:47:09 51°19.402 2°54.388 -999 -999 -999 -999 -999
2007-04-23 07:47:14 51°19.409 2°54.416 -999 -999 -999 -999 -999
2007-04-23 07:47:19 51°19.415 2°54.443 -999 -999 -999 -999 -999
2007-04-23 07:47:24 51°19.421 2°54.471 -999 -999 -999 -999 -999
2007-04-23 07:47:29 51°19.427 2°54.499 -999 -999 -999 -999 -999
2007-04-23 07:47:34 51°19.433 2°54.527 -999 -999 -999 -999 -999
2007-04-23 07:47:39 51°19.44 2°54.554 -999 -999 -999 -999 -999
2007-04-23 07:47:45 51°19.447 2°54.588 -999 -999 -999 -999 -999
2007-04-23 07:47:49 51°19.452 2°54.609 -999 -999 -999 -999 -999
2007-04-23 07:47:54 51°19.458 2°54.637 -999 -999 -999 -999 -999
2007-04-23 07:47:59 51°19.464 2°54.665 -999 -999 -999 -999 -999
2007-04-23 07:48:04 51°19.47 2°54.693 -999 -999 -999 -999 -999
2007-04-23 07:48:09 51°19.476 2°54.72 -999 -999 -999 -999 -999
2007-04-23 07:48:14 51°19.482 2°54.748 -999 -999 -999 -999 -999
2007-04-23 07:48:19 51°19.489 2°54.775 -999 -999 -999 -999 -999
2007-04-23 07:48:24 51°19.495 2°54.803 -999 -999 -999 -999 -999
2007-04-23 07:48:29 51°19.501 2°54.831 -999 -999 -999 -999 -999
2007-04-23 07:48:34 51°19.507 2°54.858 -999 -999 -999 -999 -999
2007-04-23 07:48:39 51°19.514 2°54.886 -999 -999 -999 -999 -999
2007-04-23 07:48:44 51°19.52 2°54.914 -999 -999 -999 -999 -999
2007-04-23 07:48:49 51°19.526 2°54.941 -999 -999 -999 -999 -999
2007-04-23 07:48:54 51°19.532 2°54.969 -999 -999 -999 -999 -999
2007-04-23 07:48:59 51°19.539 2°54.997 -999 -999 -999 -999 -999
2007-04-23 07:49:04 51°19.545 2°55.024 -999 -999 -999 -999 -999
2007-04-23 07:49:09 51°19.551 2°55.052 -999 -999 -999 -999 -999
2007-04-23 07:49:14 51°19.558 2°55.08 -999 -999 -999 -999 -999
2007-04-23 07:49:19 51°19.564 2°55.107 -999 -999 -999 -999 -999
2007-04-23 07:49:24 51°19.571 2°55.135 -999 -999 -999 -999 -999
2007-04-23 07:49:29 51°19.577 2°55.162 -999 -999 -999 -999 -999
2007-04-23 07:49:34 51°19.583 2°55.19 -999 -999 -999 -999 -999
2007-04-23 07:49:39 51°19.589 2°55.217 -999 -999 -999 -999 -999
2007-04-23 07:49:44 51°19.596 2°55.245 -999 -999 -999 -999 -999
2007-04-23 07:49:49 51°19.602 2°55.272 -999 -999 -999 -999 -999
2007-04-23 07:49:54 51°19.608 2°55.299 -999 -999 -999 -999 -999
2007-04-23 07:49:59 51°19.615 2°55.327 -999 -999 -999 -999 -999
2007-04-23 07:50:05 51°19.623 2°55.36 -999 -999 -999 -999 -999
2007-04-23 07:50:09 51°19.627 2°55.382 -999 -999 -999 -999 -999
2007-04-23 07:50:14 51°19.633 2°55.41 -999 -999 -999 -999 -999
2007-04-23 07:50:19 51°19.64 2°55.437 -999 -999 -999 -999 -999
2007-04-23 07:50:24 51°19.646 2°55.465 -999 -999 -999 -999 -999
2007-04-23 07:50:29 51°19.652 2°55.492 -999 -999 -999 -999 -999
2007-04-23 07:50:34 51°19.658 2°55.52 -999 -999 -999 -999 -999
2007-04-23 07:50:39 51°19.665 2°55.547 -999 -999 -999 -999 -999
2007-04-23 07:50:44 51°19.671 2°55.575 -999 -999 -999 -999 -999
2007-04-23 07:50:50 51°19.679 2°55.608 -999 -999 -999 -999 -999
2007-04-23 07:50:54 51°19.683 2°55.63 -999 -999 -999 -999 -999
2007-04-23 07:50:59 51°19.69 2°55.657 -999 -999 -999 -999 -999
2007-04-23 07:51:04 51°19.696 2°55.685 -999 -999 -999 -999 -999
2007-04-23 07:51:09 51°19.702 2°55.712 -999 -999 -999 -999 -999
2007-04-23 07:51:14 51°19.709 2°55.74 -999 -999 -999 -999 -999
2007-04-23 07:51:19 51°19.715 2°55.767 -999 -999 -999 -999 -999
2007-04-23 07:51:24 51°19.721 2°55.795 -999 -999 -999 -999 -999
2007-04-23 07:51:29 51°19.727 2°55.822 -999 -999 -999 -999 -999
2007-04-23 07:51:34 51°19.734 2°55.85 -999 -999 -999 -999 -999
2007-04-23 07:51:39 51°19.74 2°55.877 -999 -999 -999 -999 -999
2007-04-23 07:51:44 51°19.746 2°55.905 -999 -999 -999 -999 -999
2007-04-23 07:51:49 51°19.752 2°55.932 -999 -999 -999 -999 -999
2007-04-23 07:51:54 51°19.759 2°55.96 -999 -999 -999 -999 -999
2007-04-23 07:51:59 51°19.765 2°55.987 -999 -999 -999 -999 -999
2007-04-23 07:52:04 51°19.771 2°56.015 -999 -999 -999 -999 -999
2007-04-23 07:52:09 51°19.777 2°56.042 -999 -999 -999 -999 -999
2007-04-23 07:52:14 51°19.783 2°56.07 -999 -999 -999 -999 -999
2007-04-23 07:52:19 51°19.789 2°56.097 -999 -999 -999 -999 -999
2007-04-23 07:52:25 51°19.797 2°56.13 -999 -999 -999 -999 -999
2007-04-23 07:52:29 51°19.801 2°56.152 -999 -999 -999 -999 -999
2007-04-23 07:52:34 51°19.807 2°56.179 -999 -999 -999 -999 -999
2007-04-23 07:52:39 51°19.813 2°56.207 -999 -999 -999 -999 -999
2007-04-23 07:52:44 51°19.82 2°56.234 -999 -999 -999 -999 -999
2007-04-23 07:52:49 51°19.826 2°56.262 -999 -999 -999 -999 -999
2007-04-23 07:52:54 51°19.833 2°56.289 -999 -999 -999 -999 -999
2007-04-23 07:52:59 51°19.839 2°56.316 -999 -999 -999 -999 -999
2007-04-23 07:53:04 51°19.845 2°56.344 -999 -999 -999 -999 -999
2007-04-23 07:53:09 51°19.851 2°56.371 -999 -999 -999 -999 -999
2007-04-23 07:53:14 51°19.857 2°56.398 -999 -999 -999 -999 -999
2007-04-23 07:53:19 51°19.863 2°56.425 -999 -999 -999 -999 -999
2007-04-23 07:53:24 51°19.869 2°56.453 -999 -999 -999 -999 -999
2007-04-23 07:53:29 51°19.875 2°56.48 -999 -999 -999 -999 -999
2007-04-23 07:53:34 51°19.881 2°56.507 -999 -999 -999 -999 -999
2007-04-23 07:53:39 51°19.888 2°56.534 -999 -999 -999 -999 -999
2007-04-23 07:53:44 51°19.893 2°56.562 -999 -999 -999 -999 -999
2007-04-23 07:53:49 51°19.9 2°56.588 -999 -999 -999 -999 -999
2007-04-23 07:53:55 51°19.907 2°56.622 -999 -999 -999 -999 -999
2007-04-23 07:53:59 51°19.913 2°56.643 -999 -999 -999 -999 -999
2007-04-23 07:54:05 51°19.92 2°56.676 -999 -999 -999 -999 -999
2007-04-23 07:54:09 51°19.925 2°56.698 -999 -999 -999 -999 -999
2007-04-23 07:54:14 51°19.931 2°56.725 -999 -999 -999 -999 -999
2007-04-23 07:54:19 51°19.937 2°56.753 -999 -999 -999 -999 -999
2007-04-23 07:54:25 51°19.944 2°56.785 -999 -999 -999 -999 -999
2007-04-23 07:54:29 51°19.95 2°56.807 -999 -999 -999 -999 -999
2007-04-23 07:54:34 51°19.956 2°56.834 -999 -999 -999 -999 -999
2007-04-23 07:54:39 51°19.962 2°56.861 -999 -999 -999 -999 -999
2007-04-23 07:54:45 51°19.97 2°56.894 -999 -999 -999 -999 -999
2007-04-23 07:54:49 51°19.975 2°56.916 -999 -999 -999 -999 -999
2007-04-23 07:54:54 51°19.982 2°56.943 -999 -999 -999 -999 -999
2007-04-23 07:54:59 51°19.988 2°56.969 -999 -999 -999 -999 -999
2007-04-23 07:55:04 51°19.994 2°56.996 -999 -999 -999 -999 -999
2007-04-23 07:55:09 51°20.001 2°57.023 -999 -999 -999 -999 -999
2007-04-23 07:55:14 51°20.007 2°57.05 -999 -999 -999 -999 -999
2007-04-23 07:55:19 51°20.013 2°57.077 -999 -999 -999 -999 -999
2007-04-23 07:55:24 51°20.02 2°57.104 -999 -999 -999 -999 -999
2007-04-23 07:55:30 51°20.027 2°57.136 -999 -999 -999 -999 -999
2007-04-23 07:55:34 51°20.031 2°57.158 -999 -999 -999 -999 -999
2007-04-23 07:55:39 51°20.037 2°57.185 -999 -999 -999 -999 -999
2007-04-23 07:55:44 51°20.043 2°57.212 -999 -999 -999 -999 -999
2007-04-23 07:55:49 51°20.05 2°57.24 -999 -999 -999 -999 -999
2007-04-23 07:55:54 51°20.056 2°57.267 -999 -999 -999 -999 -999
2007-04-23 07:55:59 51°20.062 2°57.294 -999 -999 -999 -999 -999
2007-04-23 07:56:04 51°20.068 2°57.321 -999 -999 -999 -999 -999
2007-04-23 07:56:09 51°20.074 2°57.348 -999 -999 -999 -999 -999
2007-04-23 07:56:14 51°20.08 2°57.375 -999 -999 -999 -999 -999
2007-04-23 07:56:19 51°20.086 2°57.403 -999 -999 -999 -999 -999
2007-04-23 07:56:24 51°20.092 2°57.43 -999 -999 -999 -999 -999
2007-04-23 07:56:29 51°20.098 2°57.457 -999 -999 -999 -999 -999
2007-04-23 07:56:34 51°20.105 2°57.485 -999 -999 -999 -999 -999
2007-04-23 07:56:39 51°20.111 2°57.512 -999 -999 -999 -999 -999
2007-04-23 07:56:45 51°20.118 2°57.545 -999 -999 -999 -999 -999
2007-04-23 07:56:49 51°20.123 2°57.567 -999 -999 -999 -999 -999
2007-04-23 07:56:54 51°20.129 2°57.594 -999 -999 -999 -999 -999
2007-04-23 07:56:59 51°20.135 2°57.621 -999 -999 -999 -999 -999
2007-04-23 07:57:05 51°20.143 2°57.654 -999 -999 -999 -999 -999
2007-04-23 07:57:09 51°20.148 2°57.676 -999 -999 -999 -999 -999
2007-04-23 07:57:14 51°20.154 2°57.703 -999 -999 -999 -999 -999
2007-04-23 07:57:19 51°20.16 2°57.73 -999 -999 -999 -999 -999
2007-04-23 07:57:24 51°20.166 2°57.758 -999 -999 -999 -999 -999
2007-04-23 07:57:30 51°20.173 2°57.79 -999 -999 -999 -999 -999
2007-04-23 07:57:34 51°20.178 2°57.812 -999 -999 -999 -999 -999
2007-04-23 07:57:39 51°20.184 2°57.84 -999 -999 -999 -999 -999
2007-04-23 07:57:44 51°20.19 2°57.867 -999 -999 -999 -999 -999
2007-04-23 07:57:49 51°20.197 2°57.894 -999 -999 -999 -999 -999
2007-04-23 07:57:54 51°20.203 2°57.921 -999 -999 -999 -999 -999
2007-04-23 07:57:59 51°20.209 2°57.949 -999 -999 -999 -999 -999
2007-04-23 07:58:04 51°20.216 2°57.976 -999 -999 -999 -999 -999
2007-04-23 07:58:09 51°20.222 2°58.003 -999 -999 -999 -999 -999
2007-04-23 07:58:15 51°20.229 2°58.036 -999 -999 -999 -999 -999
2007-04-23 07:58:19 51°20.234 2°58.058 -999 -999 -999 -999 -999
2007-04-23 07:58:25 51°20.241 2°58.091 -999 -999 -999 -999 -999
2007-04-23 07:58:29 51°20.246 2°58.113 -999 -999 -999 -999 -999
2007-04-23 07:58:34 51°20.252 2°58.14 -999 -999 -999 -999 -999
2007-04-23 07:58:39 51°20.258 2°58.168 -999 -999 -999 -999 -999
2007-04-23 07:58:44 51°20.264 2°58.195 -999 -999 -999 -999 -999
2007-04-23 07:58:49 51°20.27 2°58.223 -999 -999 -999 -999 -999
2007-04-23 07:58:54 51°20.277 2°58.25 -999 -999 -999 -999 -999
2007-04-23 07:58:59 51°20.283 2°58.277 -999 -999 -999 -999 -999
2007-04-23 07:59:05 51°20.291 2°58.31 -999 -999 -999 -999 -999
2007-04-23 07:59:09 51°20.296 2°58.332 -999 -999 -999 -999 -999
2007-04-23 07:59:14 51°20.301 2°58.359 -999 -999 -999 -999 -999
2007-04-23 07:59:19 51°20.308 2°58.386 -999 -999 -999 -999 -999
2007-04-23 07:59:25 51°20.315 2°58.419 -999 -999 -999 -999 -999
2007-04-23 07:59:29 51°20.32 2°58.441 -999 -999 -999 -999 -999
2007-04-23 07:59:34 51°20.327 2°58.469 -999 -999 -999 -999 -999
2007-04-23 07:59:39 51°20.333 2°58.496 -999 -999 -999 -999 -999
2007-04-23 07:59:44 51°20.339 2°58.523 -999 -999 -999 -999 -999
2007-04-23 07:59:49 51°20.345 2°58.551 -999 -999 -999 -999 -999
2007-04-23 07:59:54 51°20.352 2°58.578 -999 -999 -999 -999 -999
2007-04-23 07:59:59 51°20.358 2°58.605 -999 -999 -999 -999 -999
2007-04-23 08:00:04 51°20.364 2°58.632 -999 -999 -999 -999 -999
2007-04-23 08:00:10 51°20.372 2°58.664 -999 -999 -999 -999 -999
2007-04-23 08:00:14 51°20.377 2°58.686 -999 -999 -999 -999 -999
2007-04-23 08:00:19 51°20.383 2°58.713 -999 -999 -999 -999 -999
2007-04-23 08:00:24 51°20.389 2°58.74 -999 -999 -999 -999 -999
2007-04-23 08:00:29 51°20.396 2°58.767 -999 -999 -999 -999 -999
2007-04-23 08:00:35 51°20.403 2°58.8 -999 -999 -999 -999 -999
2007-04-23 08:00:39 51°20.408 2°58.821 -999 -999 -999 -999 -999
2007-04-23 08:00:44 51°20.414 2°58.848 -999 -999 -999 -999 -999
2007-04-23 08:00:49 51°20.42 2°58.876 -999 -999 -999 -999 -999
2007-04-23 08:00:54 51°20.426 2°58.903 -999 -999 -999 -999 -999
2007-04-23 08:00:59 51°20.432 2°58.93 -999 -999 -999 -999 -999
2007-04-23 08:01:05 51°20.439 2°58.962 -999 -999 -999 -999 -999
2007-04-23 08:01:09 51°20.444 2°58.984 -999 -999 -999 -999 -999
2007-04-23 08:01:14 51°20.45 2°59.011 -999 -999 -999 -999 -999
2007-04-23 08:01:19 51°20.456 2°59.038 -999 -999 -999 -999 -999
2007-04-23 08:01:24 51°20.462 2°59.065 -999 -999 -999 -999 -999
2007-04-23 08:01:29 51°20.468 2°59.092 -999 -999 -999 -999 -999
2007-04-23 08:01:34 51°20.474 2°59.119 -999 -999 -999 -999 -999
2007-04-23 08:01:39 51°20.48 2°59.146 -999 -999 -999 -999 -999
2007-04-23 08:01:45 51°20.487 2°59.178 -999 -999 -999 -999 -999
2007-04-23 08:01:49 51°20.492 2°59.2 -999 -999 -999 -999 -999
2007-04-23 08:01:54 51°20.498 2°59.227 -999 -999 -999 -999 -999
2007-04-23 08:01:59 51°20.504 2°59.254 -999 -999 -999 -999 -999
2007-04-23 08:02:04 51°20.51 2°59.28 -999 -999 -999 -999 -999
2007-04-23 08:02:09 51°20.515 2°59.307 -999 -999 -999 -999 -999
2007-04-23 08:02:14 51°20.521 2°59.334 -999 -999 -999 -999 -999
2007-04-23 08:02:19 51°20.527 2°59.361 -999 -999 -999 -999 -999
2007-04-23 08:02:24 51°20.533 2°59.388 -999 -999 -999 -999 -999
2007-04-23 08:02:29 51°20.539 2°59.415 -999 -999 -999 -999 -999
2007-04-23 08:02:34 51°20.545 2°59.442 -999 -999 -999 -999 -999
2007-04-23 08:02:39 51°20.55 2°59.469 -999 -999 -999 -999 -999
2007-04-23 08:02:44 51°20.556 2°59.496 -999 -999 -999 -999 -999
2007-04-23 08:02:49 51°20.562 2°59.523 -999 -999 -999 -999 -999
2007-04-23 08:02:54 51°20.568 2°59.55 -999 -999 -999 -999 -999
2007-04-23 08:02:59 51°20.574 2°59.577 -999 -999 -999 -999 -999
2007-04-23 08:03:04 51°20.58 2°59.604 -999 -999 -999 -999 -999
2007-04-23 08:03:09 51°20.586 2°59.63 -999 -999 -999 -999 -999
2007-04-23 08:03:14 51°20.591 2°59.657 -999 -999 -999 -999 -999
2007-04-23 08:03:19 51°20.597 2°59.684 -999 -999 -999 -999 -999
2007-04-23 08:03:25 51°20.604 2°59.716 -999 -999 -999 -999 -999
2007-04-23 08:03:29 51°20.609 2°59.738 -999 -999 -999 -999 -999
2007-04-23 08:03:34 51°20.616 2°59.765 -999 -999 -999 -999 -999
2007-04-23 08:03:39 51°20.622 2°59.792 -999 -999 -999 -999 -999
2007-04-23 08:03:45 51°20.629 2°59.824 -999 -999 -999 -999 -999
2007-04-23 08:03:49 51°20.634 2°59.845 -999 -999 -999 -999 -999
2007-04-23 08:03:54 51°20.64 2°59.872 -999 -999 -999 -999 -999
2007-04-23 08:03:59 51°20.646 2°59.899 -999 -999 -999 -999 -999
2007-04-23 08:04:05 51°20.654 2°59.931 -999 -999 -999 -999 -999
2007-04-23 08:04:10 51°20.66 2°59.958 -999 -999 -999 -999 -999
2007-04-23 08:04:14 51°20.665 2°59.98 -999 -999 -999 -999 -999
2007-04-23 08:04:19 51°20.671 3°0.007 -999 -999 -999 -999 -999
2007-04-23 08:04:24 51°20.678 3°0.034 -999 -999 -999 -999 -999
2007-04-23 08:04:29 51°20.683 3°0.061 -999 -999 -999 -999 -999
2007-04-23 08:04:34 51°20.69 3°0.088 -999 -999 -999 -999 -999
2007-04-23 08:04:39 51°20.696 3°0.115 -999 -999 -999 -999 -999
2007-04-23 08:04:44 51°20.702 3°0.142 -999 -999 -999 -999 -999
2007-04-23 08:04:49 51°20.708 3°0.169 -999 -999 -999 -999 -999
2007-04-23 08:04:55 51°20.716 3°0.202 -999 -999 -999 -999 -999
2007-04-23 08:04:59 51°20.721 3°0.223 -999 -999 -999 -999 -999
2007-04-23 08:05:04 51°20.727 3°0.251 -999 -999 -999 -999 -999
2007-04-23 08:05:09 51°20.733 3°0.278 -999 -999 -999 -999 -999
2007-04-23 08:05:14 51°20.739 3°0.305 -999 -999 -999 -999 -999
2007-04-23 08:05:19 51°20.745 3°0.332 -999 -999 -999 -999 -999
2007-04-23 08:05:24 51°20.751 3°0.359 -999 -999 -999 -999 -999
2007-04-23 08:05:29 51°20.757 3°0.386 -999 -999 -999 -999 -999
2007-04-23 08:05:34 51°20.763 3°0.413 -999 -999 -999 -999 -999
2007-04-23 08:05:39 51°20.77 3°0.44 -999 -999 -999 -999 -999
2007-04-23 08:05:44 51°20.776 3°0.467 -999 -999 -999 -999 -999
2007-04-23 08:05:49 51°20.782 3°0.494 -999 -999 -999 -999 -999
2007-04-23 08:05:54 51°20.788 3°0.521 -999 -999 -999 -999 -999
2007-04-23 08:05:59 51°20.794 3°0.549 -999 -999 -999 -999 -999
2007-04-23 08:06:05 51°20.802 3°0.581 -999 -999 -999 -999 -999
2007-04-23 08:06:09 51°20.808 3°0.602 -999 -999 -999 -999 -999
2007-04-23 08:06:14 51°20.814 3°0.63 -999 -999 -999 -999 -999
2007-04-23 08:06:19 51°20.82 3°0.657 -999 -999 -999 -999 -999
2007-04-23 08:06:24 51°20.826 3°0.684 -999 -999 -999 -999 -999
2007-04-23 08:06:29 51°20.833 3°0.711 -999 -999 -999 -999 -999
2007-04-23 08:06:34 51°20.839 3°0.738 -999 -999 -999 -999 -999
2007-04-23 08:06:39 51°20.845 3°0.765 -999 -999 -999 -999 -999
2007-04-23 08:06:44 51°20.852 3°0.792 -999 -999 -999 -999 -999
2007-04-23 08:06:50 51°20.859 3°0.824 -999 -999 -999 -999 -999
2007-04-23 08:06:54 51°20.864 3°0.846 -999 -999 -999 -999 -999
2007-04-23 08:06:59 51°20.871 3°0.873 -999 -999 -999 -999 -999
2007-04-23 08:07:04 51°20.877 3°0.9 -999 -999 -999 -999 -999
2007-04-23 08:07:09 51°20.883 3°0.927 -999 -999 -999 -999 -999
2007-04-23 08:07:14 51°20.889 3°0.954 -999 -999 -999 -999 -999
2007-04-23 08:07:19 51°20.895 3°0.981 -999 -999 -999 -999 -999
2007-04-23 08:07:24 51°20.901 3°1.008 -999 -999 -999 -999 -999
2007-04-23 08:07:29 51°20.907 3°1.035 -999 -999 -999 -999 -999
2007-04-23 08:07:34 51°20.913 3°1.062 -999 -999 -999 -999 -999
2007-04-23 08:07:39 51°20.919 3°1.089 -999 -999 -999 -999 -999
2007-04-23 08:07:45 51°20.926 3°1.122 -999 -999 -999 -999 -999
2007-04-23 08:07:49 51°20.931 3°1.144 -999 -999 -999 -999 -999
2007-04-23 08:07:54 51°20.936 3°1.171 -999 -999 -999 -999 -999
2007-04-23 08:07:59 51°20.943 3°1.198 -999 -999 -999 -999 -999
2007-04-23 08:08:04 51°20.949 3°1.225 -999 -999 -999 -999 -999
2007-04-23 08:08:09 51°20.955 3°1.251 -999 -999 -999 -999 -999
2007-04-23 08:08:14 51°20.961 3°1.278 -999 -999 -999 -999 -999
2007-04-23 08:08:19 51°20.967 3°1.305 -999 -999 -999 -999 -999